Regional Weather Roundup
Issued by NWS Little Rock, AR

Home | Current Version | Previous Version | Graphics & Text | Print | Product List | Glossary On
Versions: 1 2 3 4 5 6 7 8 9 10 11 12 13 14 15 16 17 18 19 20 21 22 23 24 25 26 27 28 29 30 31 32
000
ASUS44 KLZK 250505
RWRLZK

WEATHER ROUNDUP FOR ARKANSAS
NATIONAL WEATHER SERVICE LITTLE ROCK AR
1200 AM CDT TUE APR 25 2017

NOTE: "FAIR" INDICATES FEW OR NO CLOUDS BELOW 12,000 FEET WITH NO
SIGNIFICANT WEATHER AND/OR OBSTRUCTIONS TO VISIBILITY.

ARZ001-003-010-029-250600-
NORTHWEST ARKANSAS

CITY           SKY/WX    TMP DP  RH WIND       PRES   REMARKS
FAYETTEVILLE   CLEAR     57  43  59 CALM      29.69F
FORT SMITH     CLOUDY    61  43  51 CALM      29.68F
HARRISON       CLEAR     53  40  61 SE5       29.72S
BENTONVILLE    CLEAR     59  39  47 S6        29.69F
ROGERS         CLEAR     56  43  61 SE6       29.70F
SILOAM SPGS    CLOUDY    59  39  47 SE5       29.68F
HIGHFILL       CLEAR     55  43  63 S5        29.68F
$$

ARZ004-005-016-250600-
NORTH CENTRAL ARKANSAS

CITY           SKY/WX    TMP DP  RH WIND       PRES   REMARKS
BATESVILLE     CLEAR    N/A N/A N/A SE5       29.75S
FLIPPIN        CLEAR    N/A N/A N/A SE3       29.71R
MTN HOME       CLEAR     56  40  55 S3        29.73R
$$

ARZ040-041-250600-
WEST CENTRAL ARKANSAS

CITY           SKY/WX    TMP DP  RH WIND       PRES   REMARKS
MENA           PTCLDY    68  45  42 CALM      29.71F
MOUNT IDA      CLEAR     67  40  37 VRB3      29.70F
$$

ARZ009-017-025-026-028-250600-
NORTHEAST ARKANSAS

CITY           SKY/WX    TMP DP  RH WIND       PRES   REMARKS
JONESBORO      CLEAR     55  53  93 CALM      29.75S
NEWPORT        CLEAR     55  51  86 S5        29.75S
WALNUT RIDGE   CLEAR     59  52  77 SE7       29.74S
BLYTHEVILLE    CLEAR     61  56  83 S6        29.76S
$$

ARZ022-023-033-042-044-250600-
CENTRAL ARKANSAS

CITY           SKY/WX    TMP DP  RH WIND       PRES   REMARKS
LITTLE ROCK    PTCLDY    55  50  83 S7        29.74F
N LITTLE ROCK    N/A     61  47  60 S3        29.74F
JACKSONVILLE   CLEAR     53  49  87 CALM      29.73F
CONWAY           N/A     57  48  72 S7        29.72S
SEARCY         CLEAR     52  51  97 CALM      29.76S
HOT SPRINGS    CLEAR     64  44  48 SE5       29.74S
RUSSELLVILLE   CLEAR     56  46  69 CALM      29.72R
$$

ARZ036-250600-
EAST ARKANSAS

CITY           SKY/WX    TMP DP  RH WIND       PRES   REMARKS
WEST MEMPHIS   CLEAR     58  56  93 SE5       29.75F
$$

ARZ050-053-066-070-073-250600-
SOUTHWEST ARKANSAS

CITY           SKY/WX    TMP DP  RH WIND       PRES   REMARKS
ARKADELPHIA    FAIR      55  54  96 CALM      29.74F
CAMDEN         CLEAR     54  46  76 CALM      29.75F
TEXARKANA      CLEAR     62  46  55 S10       29.72F
EL DORADO      CLEAR     55  49  80 CALM      29.76S
DE QUEEN       PTCLDY    54  52  93 CALM      29.70F
$$

ARZ056-057-069-250600-
SOUTHEAST ARKANSAS

CITY           SKY/WX    TMP DP  RH WIND       PRES   REMARKS
PINE BLUFF     CLEAR     57  49  74 S5        29.75F
STUTTGART      CLEAR     61  45  55 SE8       29.76F
MONTICELLO     CLEAR     60  48  64 S5        29.76F

$$






USA.gov is the U.S. government's official web portal to all federal, state and local government web resources and services.